Tracking 20621 objects as of 1-Apr-2020
HD Live streaming from Space Station
objects crossing your sky now

STARLINK-1147

Track STARLINK-1147 now!
10-day predictions
STARLINK-1147 is classified as:


NORAD ID: 45095
Int'l Code: 2020-006BD
Perigee: 386.0 km
Apogee: 387.7 km
Inclination: 53.0 °
Period: 92.1 minutes
Semi major axis: 6757 km
RCS: Unknown
Launch date: January 29, 2020
Source: United States (US)
Launch site: AIR FORCE EASTERN TEST RANGE (AFETR)
aabbcc
Your satellite tracking list
Your tracking list is empty




NASA's NSSDC Master Catalog

Two Line Element Set (TLE):
1 45095U 20006BD  20091.91667824 +.00039162 +00000-0 +43141-3 0  9993
2 45095 053.0012 286.8725 0001313 066.9834 113.4237 15.62755938010168
Source of the keplerian elements: AFSPC